Objednávky za rok 2015

január február marec apríl máj jún júl august september október november december

Číslo Dátum vyhotovenia Názov a adresa dodávateľa IČO Popis plnenia Odhadovaná suma bez DPH Zmluva ak faktúra súvisí so  zmluvou
9957 04.08.2015 DKC, s.r.o., Zvolen  31571727 nafta motorová - VIII/2015 9 900,00  áno
9958 04.08.2015 Enersys, s.r.o., Bratislava 45987181 oprava - výmena stanič.olov.batérií 34 401,36  áno
9959 04.08.2015 REMOS Zvolen, s.r.o., Lieskovec 36032506 úprava vnútrozávod.komuníkácií 60 513,26  áno
9960 04.08.2015 NCH Slovakia, s.r.o.,Bratislava 34096043 DC Drain, rozpúšťdlo, odmasťovadlo 1 285,24  nie
9961 04.08.2015 Marlus Group,s.r.o., Nitra  31411304 výdajník vody 390,00  nie
9962 04.08.2015 BVH, s.r.o., Prievidza 35674148 OCHPP 695,00  áno
9963 04.08.2015 Energoprojekt, a.s., Bratislava 35857994 PD na demontáž technolog.zariad. 8 500,00  áno
9964 04.08.2015 Czech Star, s.r.o., or.zl.Bratisl. 30846838 doska tesniaca 120,00  nie
9965 05.08.2015 SABKO, s.r.o., Zvolen  44493002 zatvárací mechanizmus, šnúra upch. 87,76  nie
9966 05.08.2015 Trenčian.min.vody, a.s., Bratisl 35867159 minerálna voda 282,24  nie
9967 06.08.2015 Tempra, s.r.o., Ban.Bystrica 31639607 oprava železničnej vlečky  7 655,75  áno
9968 06.08.2015 Energo Control, s.r.o., Košice 36205788 oprava riadiaceho systému  2 895,50  nie
9969 10.08.2015 E.Kubinec, Praktik Zvolen  33299153 čap spojkový, vložka BKN 224,00  nie
9970 11.08.2015 Drucker, s.r.o. Čadca 44925417 tonery 63,30  nie
9971 11.08.2015 Fortischem, s.r.o., Nováky 46693874 kyselina chlorovodíková 3 000,00  áno
9972 11.08.2015 NCH Slovakia, s.r.o.,Bratislava 34096043 tuba náhradná SPL 1 405,60  nie
9973 11.08.2015 SABKO, s.r.o., Zvolen  44493002 článok redukčný 16 B1, vzduch.pištol 54,40  nie
9974 11.08.2015 Zvarmat, s.r.o., Brezno 36622567 elektrody EB 66,72  nie
9975 11.08.2015 Roexim, s.r.o., Zvolen   storno objednávky     
9976 11.08.2015 VST Engeneering, s.r.o. Pardub. 25264087 obnovenie funkcie systému 1 198,00  nie
9977 11.08.2015 Euro Steel, s.r.o., Zvolen 36057819 plech, ocel stavebná 269,96  nie
9978 12.08.2015 Beličková, s.r.o., Zvolen  45902836 farba, riedidlo, štetce, 75,00  nie,
9979 12.08.2015 G.P.S., Zvolen, s.r.o., 36639231 identifikácia  vlastníckych vzťahov 976,00  nie
9980 12.08.2015 DeLux ZPS, s.r.o., Vráble 35934590 hygienické a čistiace potreby 462,00  nie
9981 12.08.2015 R.Otiepka, Luro, Zvolen  30455049 vrecia igelitové  40,00  nie
9982 12.08.2015 Hansa Flex, s.r.o., Košťany n/T 31642608 hadica hydraul. Hrdlo naskrutkov. 60,45  nie
9983 14.08.2015 Verlag Dsahofer, s.r.o., Bratisl. 35730129 on line križnica verej.obtarávania 187,20  nie
9984 14.08.2015 Zvarmat, s.r.o., Brezno 36622567 elektrody EB 66,72  nie
9985 14.08.2015 MK Staving, s.r.o., Zvolen  45665681 vysekávanie trstiny  450,00  nie
9986 17.08.2015 Bilfinger Industrial, Most 47784709 oprava regulačn.ventilov 3 580,00  áno
9987 17.08.2015 Bilfinger Industrial, Most 47784709 oprava spúšťacích ventilov 4 134,00  áno
9988 17.08.2015 EPO Zvolen, s.r.o., 652598 elektomotor 195,00  nie
9989 17.08.2015 Osko, a.s.,Banská Bystrica 36044717 trubice, kábel CYKY 72,00  nie
9990 17.08.2015 Autokodus, s.r.o., Zvolen  36530751 olej Rimula, príp.na utesnenie chlad. 152,00  nie
9991 17.08.2015 VJKM, s.r.o.,Králiky 36626562 prenájom a montáž lešenie 656,00  nie
9992 17.08.2015 NCH Slovakia, s.r.o.,Bratislava 34096043 bezpopolový olej  2 829,50  nie
9993 18.08.2015 REMA Tip Top, s.r.o., Lad.Vieska 31621643 spojovač 166,80  nie
9994 18.08.2015 Mogul Slovakia, Hradište p/Vr. 36222992 olej prevodový  252,00  nie
9995 18.08.2015 Technik, s.r.o., Zvolen  47531711 batérie vodovod., sifón, zámok 55,10  nie
9996 18.08.2015 Narimex, s.r.o., Bratislava 679976 oprava flexivyypínača 21,00  nie
9997 20.08.2015 EPO Zvolen, s.r.o., 652598 oprava elektromotora 262,60  nie
9998 20.08.2015 EnergoControl, s.r.o., Košice 36205788 tech. Pomoc pri nábehu TG 01 2 271,00  nie
9999 25.08.2015 E.Kubinec, Praktik Zvolen  33299153 čap do spojky BKN 75,00  nie
10000 25.08.2015 Sloving, s.r.o., Bratislava 17321069 opravy a údržba technolog.zariad 14 139,00  áno
10001 25.08.2015 NCH Slovakia, s.r.o.,Bratislava 34096043 náter na premenu hrdze 729,00  nie
10002 25.08.2015 SCANDI, s.r.o., Zvolen  36642983 zásobník na toalet.papier, náplne 150,00  nie
10003 26,8,2015 Bilfinger Industrial, Most 47784709 izolačný materiál 2 916,00  áno
10004 26,8,2015 Národn.energet.spol. a.s., B.B. 43769233 opakov.funkčná skúška TZL K 02 2 620,00  nie
10005 27.08.2015 Unicarback, s.r.o., Žilina 46643206 kosenie trávnatých plôch  1 350,00  nie
10006 27.08.2015 TMS MONTYS, s.r.o., Ivanka  34103287 obehové čerpadlo  900,00  nie